GSE Systems Gross Margin 2006-2021 | GVP

Current and historical gross margin for GSE Systems (GVP) over the last 10 years. The current gross profit margin for GSE Systems as of June 30, 2021 is %.
GSE Systems Gross Margin Historical Data
Date TTM Revenue TTM Gross Profit Gross Margin
2021-06-30 $0.05B $0.01B 24.53%
2021-03-31 $0.05B $0.01B 26.42%
2020-12-31 $0.06B $0.02B 25.86%
2020-09-30 $0.06B $0.02B 25.81%
2020-06-30 $0.07B $0.02B 26.09%
2020-03-31 $0.08B $0.02B 25.64%
2019-12-31 $0.08B $0.02B 25.61%
2019-09-30 $0.09B $0.02B 25.00%
2019-06-30 $0.09B $0.02B 24.44%
2019-03-31 $0.09B $0.02B 23.91%
2018-12-31 $0.09B $0.02B 23.66%
2018-09-30 $0.09B $0.02B 22.83%
2018-06-30 $0.09B $0.02B 23.53%
2018-03-31 $0.08B $0.02B 24.68%
2017-12-31 $0.07B $0.02B 25.71%
2017-09-30 $0.06B $0.02B 29.51%
2017-06-30 $0.06B $0.02B 30.00%
2017-03-31 $0.06B $0.02B 30.91%
2016-12-31 $0.05B $0.02B 32.69%
2016-09-30 $0.05B $0.02B 32.08%
2016-06-30 $0.05B $0.02B 27.78%
2016-03-31 $0.06B $0.01B 25.00%
2015-12-31 $0.06B $0.01B 22.81%
2015-09-30 $0.06B $0.01B 19.64%
2015-06-30 $0.05B $0.01B 22.45%
2015-03-31 $0.04B $0.01B 25.58%
2014-12-31 $0.04B $0.01B 26.32%
2014-09-30 $0.04B $0.01B 29.73%
2014-06-30 $0.04B $0.01B 29.27%
2014-03-31 $0.04B $0.01B 22.73%
2013-12-31 $0.05B $0.01B 23.40%
2013-09-30 $0.05B $0.01B 22.92%
2013-06-30 $0.05B $0.01B 26.53%
2013-03-31 $0.05B $0.02B 31.37%
2012-12-31 $0.05B $0.02B 32.69%
2012-09-30 $0.05B $0.02B 31.48%
2012-06-30 $0.05B $0.02B 31.48%
2012-03-31 $0.05B $0.02B 32.69%
2011-12-31 $0.05B $0.02B 31.37%
2011-09-30 $0.05B $0.01B 29.17%
2011-06-30 $0.05B $0.01B 23.40%
2011-03-31 $0.05B $0.01B 22.92%
2010-12-31 $0.05B $0.01B 23.40%
2010-09-30 $0.05B $0.01B 26.09%
2010-06-30 $0.04B $0.01B 29.55%
2010-03-31 $0.04B $0.01B 27.91%
2009-12-31 $0.04B $0.01B 27.50%
2009-09-30 $0.04B $0.01B 27.03%
2009-06-30 $0.03B $0.01B 26.47%
2009-03-31 $0.03B $0.01B 26.67%
2008-12-31 $0.03B $0.01B 27.59%
2008-09-30 $0.03B $0.01B 27.59%
2008-06-30 $0.03B $0.01B 26.67%
2008-03-31 $0.03B $0.01B 29.03%
2007-12-31 $0.03B $0.01B 28.13%
2007-09-30 $0.03B $0.01B 28.13%
2007-06-30 $0.03B $0.01B 29.03%
2007-03-31 $0.03B $0.01B 26.67%
2006-12-31 $0.03B $0.01B 25.00%
2006-09-30 $0.02B $0.01B 20.83%
2006-06-30 $0.02B $0.00B 13.64%
2006-03-31 $0.02B $0.00B 13.64%
2005-12-31 $0.02B $0.00B 13.64%
Sector Industry Market Cap Revenue
Computer and Technology Computer Software $0.028B $0.058B
GSE Systems, Inc. develops and delivers business and technology solutions by applying process control and simulation software, systems and services to the pharmaceutical and chemical research & development, energy, process and manufacturing industries worldwide. The company's products are used in the following industries: specialty chemical, food and beverage, petroleum refining, pharmaceutical, fossil and nuclear power generation, metals and water treatment. (PRESS RELEASE)
Stock Name Country Market Cap PE Ratio
Microsoft (MSFT) United States $2293.695B 38.30
Adobe (ADBE) United States $316.858B 68.29
Salesforce, Inc (CRM) United States $254.892B 76.13
Oracle (ORCL) United States $238.906B 20.63
SAP SE (SAP) Germany $177.961B 22.63
Intuit (INTU) United States $156.449B 76.38
Dassault Systemes SA (DASTY) France $79.473B 69.78
Autodesk (ADSK) United States $63.906B 106.87
VMware (VMW) United States $58.579B 27.54
Synopsys (SNPS) United States $51.146B 69.87
Cadence Design Systems (CDNS) United States $46.391B 64.96
ANSYS (ANSS) United States $32.676B 65.70
SS&C Technologies Holdings (SSNC) United States $18.141B 16.26
Nuance Communications (NUAN) United States $17.377B 153.47
PTC (PTC) United States $14.731B 51.43
Open Text (OTEX) Canada $14.256B 16.24
Citrix Systems (CTXS) United States $13.784B 32.44
Pegasystems (PEGA) United States $10.749B 0.00
Manhattan Associates (MANH) United States $10.124B 107.89
Aspen Technology (AZPN) United States $8.597B 38.15
Trend Micro (TMICY) Japan $8.141B 30.45
Descartes Systems Group (DSGX) Canada $6.970B 99.24
MicroStrategy (MSTR) United States $6.170B 114.47
BlackBerry (BB) Canada $5.761B 254.00
Cornerstone OnDemand (CSOD) United States $3.820B 22.18
ACI Worldwide (ACIW) United States $3.744B 21.83
CommVault Systems (CVLT) United States $3.594B 93.29
Blackbaud (BLKB) United States $3.321B 56.61
Verint Systems (VRNT) United States $2.928B 21.22
Progress Software (PRGS) United States $2.021B 15.61
Bottomline Technologies (EPAY) United States $1.861B 177.30
QAD (QADB) United States $1.828B 120.83
PROS Holdings (PRO) United States $1.762B 0.00
Sapiens (SPNS) Israel $1.544B 27.64
Canaan (CAN) China $1.227B 0.00
OptimizeRx (OPRX) United States $1.225B 631.91
Avid Technology (AVID) United States $1.204B 30.00
Magic Software Enterprises (MGIC) Israel $1.022B 24.81
Simulations Plus (SLP) United States $0.888B 77.39
American Software (AMSWA) United States $0.835B 89.57
Icad Inc (ICAD) United States $0.259B 0.00
Smith Micro Software (SMSI) United States $0.253B 0.00
ServiceSource (SREV) United States $0.134B 0.00
Park City (PCYG) United States $0.103B 48.27
Neonode (NEON) Sweden $0.067B 0.00
BSQUARE (BSQR) United States $0.050B 0.00
NetSol Technologies (NTWK) United States $0.044B 17.73